Home   Weather   Nursultan   Past weeks
Flag for Kazakhstan

Past Weather in Nursultan, Kazakhstan — Yesterday and Last 2 Weeks

Now
57 °F

Clear.


Feels Like: 55 °F
Forecast: 72 / 48 °F
Wind: 8 mph from Northeast

Location: Astana

Current Time: Jun 20, 2019 at 1:05:44 am

Latest Report: Jun 20, 2019 at 12:30 am


Visibility: 10 mi

Pressure: 29.95 "Hg

Humidity: 67%

Dew Point: 46 °F

Location of NursultanLocation

Past Weather in Nursultan — Graph

°F

Nursultan Temperature Yesterday

Maximum temperature yesterday: 68 °F (at 3:00 pm)
Minimum temperature yesterday: 48 °F (at 4:00 am)
Average temperature yesterday: 59 °F

High & Low Weather Summary for the Past Weeks

 TemperatureHumidityPressure
High88 °F (Jun 13, 2:30 pm)100% (Jun 7, 4:30 am)30.01 "Hg (Jun 7, 4:30 am)
Low39 °F (Jun 15, 5:00 am)20% (Jun 13, 3:30 pm)29.50 "Hg (Jun 7, 1:00 pm)
Average59 °F70%29.73 "Hg
* Reported Jun 5 12:00 am — Jun 20 12:00 am, Nursultan. Weather by CustomWeather, © 2019

Note: Actual official high and low records may vary slightly from our data, if they occured in-between our weather recording intervals... More about our weather records

Advertising

Nursultan Weather History for the Previous 24 Hours

Scroll right to see more
 ConditionsComfort  
Time TempWeatherWind HumidityBarometerVisibility
12:00 am
Thu, Jun 20
57 °FClear.8 mph67%29.95 "Hg10 mi
11:30 pm
Wed, Jun 19
59 °FClear.6 mph63%29.95 "Hg10 mi
11:00 pm59 °FClear.6 mph63%29.95 "Hg10 mi
10:30 pm61 °FSunny.6 mph59%29.95 "Hg10 mi
9:30 pm61 °FSunny.8 mph59%29.92 "Hg10 mi
9:00 pm63 °FPassing clouds.8 mph56%29.92 "HgN/A
8:30 pm66 °FPassing clouds.6 mph43%29.89 "HgN/A
8:00 pm66 °FPassing clouds.6 mph46%29.89 "HgN/A
7:30 pm66 °FPassing clouds.8 mph43%29.89 "HgN/A
7:00 pm68 °FSunny.8 mph40%29.89 "Hg10 mi
6:30 pm66 °FPartly sunny.6 mph46%29.86 "HgN/A
6:00 pm66 °FPartly sunny.8 mph43%29.86 "HgN/A
5:30 pm68 °FPartly sunny.8 mph40%29.86 "HgN/A
5:00 pm68 °FPartly sunny.6 mph43%29.86 "HgN/A
4:30 pm68 °FPartly sunny.8 mph43%29.86 "HgN/A
4:00 pm68 °FPartly sunny.8 mph40%29.86 "HgN/A
3:30 pm68 °FPartly sunny.6 mph43%29.83 "HgN/A
3:00 pm68 °FPartly sunny.8 mph43%29.83 "HgN/A
2:30 pm66 °FPartly sunny.8 mph46%29.83 "HgN/A
2:00 pm66 °FPartly sunny.6 mph46%29.83 "HgN/A
1:30 pm64 °FPartly sunny.10 mph49%29.83 "HgN/A
1:00 pm64 °FPartly sunny.8 mph52%29.83 "HgN/A
12:30 pm66 °FPartly sunny.8 mph52%29.83 "HgN/A
12:00 pm64 °FPartly sunny.8 mph60%29.83 "HgN/A
11:30 am63 °FScattered clouds.8 mph59%29.80 "HgN/A
11:00 am63 °FScattered clouds.8 mph56%29.80 "HgN/A
10:30 am61 °FScattered clouds.8 mph63%29.80 "HgN/A
10:00 am59 °FScattered clouds.8 mph68%29.80 "HgN/A
9:30 am59 °FScattered clouds.8 mph72%29.80 "HgN/A
9:00 am57 °FPassing clouds.8 mph72%29.80 "HgN/A
8:30 am55 °FPassing clouds.6 mph77%29.80 "HgN/A
8:00 am54 °FSunny.8 mph82%29.77 "Hg10 mi
7:30 am54 °FPassing clouds.8 mph82%29.77 "HgN/A
7:00 am52 °FSunny.8 mph82%29.77 "Hg10 mi
6:30 am50 °FSunny.8 mph88%29.77 "Hg10 mi
6:00 am48 °FSunny.8 mph94%29.74 "Hg10 mi
5:30 am50 °FClear.8 mph88%29.74 "Hg10 mi
5:00 am50 °FClear.6 mph88%29.74 "Hg10 mi
4:30 am50 °FClear.1 mph94%29.71 "Hg10 mi
4:00 am48 °FClear.No wind94%29.71 "Hg10 mi
3:30 am50 °FClear.1 mph94%29.71 "Hg10 mi
3:00 am50 °FPassing clouds.3 mph94%29.71 "HgN/A
2:30 am52 °FClear.No wind82%29.71 "Hg10 mi
2:00 am54 °FPartly cloudy.1 mph77%29.71 "HgN/A
1:30 am52 °FPartly cloudy.No wind88%29.71 "HgN/A
1:00 am55 °FPartly cloudy.6 mph77%29.71 "HgN/A
Weather by CustomWeather, © 2019

See weather overview